| time (UTC) | temp F | wind direction | speed knots | gust knots | rain 1hr in | rain 24hr in | rain mn in | humidity % | barometer mb |
| 20260903160140 | 72 | 222 | 8.7 | 16.5 | 0.00 | 0.06 | 0.06 | 82 | 1017.6 |
| 20260903154931 | 73 | 228 | 7.8 | 19.1 | 0.00 | 0.06 | 0.06 | 81 | 1017.8 |
| 20260903154430 | 73 | 224 | 7.0 | 12.2 | 0.00 | 0.06 | 0.06 | 81 | 1017.9 |
| 20260903153930 | 73 | 234 | 7.8 | 18.2 | 0.00 | 0.06 | 0.06 | 80 | 1017.9 |
| 20260903153432 | 73 | 237 | 7.8 | 18.2 | 0.00 | 0.06 | 0.06 | 80 | 1018.0 |
| 20260903152934 | 73 | 194 | 7.0 | 16.5 | 0.00 | 0.06 | 0.06 | 80 | 1018.0 |
| 20260903152432 | 73 | 201 | 7.8 | 14.8 | 0.00 | 0.06 | 0.06 | 80 | 1017.9 |
| 20260903152425 | 73 | 225 | 7.0 | 14.8 | 0.00 | 0.06 | 0.06 | 79 | 1018.0 |
| 20260903151433 | 74 | 204 | 7.8 | 14.8 | 0.00 | 0.06 | 0.06 | 78 | 1018.0 |
| 20260903150931 | 74 | 231 | 7.8 | 15.6 | 0.00 | 0.06 | 0.06 | 78 | 1018.1 |
| 20260903150432 | 74 | 227 | 8.7 | 15.6 | 0.00 | 0.06 | 0.06 | 78 | 1018.0 |
| 20260903150000 | 73 | 236 | 10.4 | 22.6 | 0.00 | 0.06 | 0.06 | 77 | 1017.9 |
| 20260903145938 | 73 | 241 | 9.6 | 16.5 | 0.00 | 0.06 | 0.06 | 78 | 1017.9 |
| 20260903144931 | 74 | 237 | 11.3 | 22.6 | 0.00 | 0.06 | 0.06 | 77 | 1017.8 |
| 20260903144432 | 73 | 268 | 12.2 | 25.2 | 0.00 | 0.06 | 0.06 | 77 | 1017.9 |
| 20260903143933 | 73 | 190 | 12.2 | 25.2 | 0.00 | 0.06 | 0.06 | 77 | 1017.8 |
| 20260903143432 | 73 | 231 | 11.3 | 21.7 | 0.00 | 0.06 | 0.06 | 79 | 1017.8 |
| 20260903142930 | 73 | 240 | 11.3 | 21.7 | 0.00 | 0.06 | 0.06 | 79 | 1017.8 |
| 20260903142432 | 73 | 199 | 11.3 | 22.6 | 0.00 | 0.06 | 0.06 | 78 | 1017.8 |
| 20260903141934 | 73 | 229 | 12.2 | 22.6 | 0.00 | 0.06 | 0.06 | 78 | 1017.6 |
| 20260903141430 | 74 | 211 | 11.3 | 20.9 | 0.00 | 0.06 | 0.06 | 78 | 1017.8 |
| 20260903140950 | 73 | 233 | 9.6 | 21.7 | 0.00 | 0.06 | 0.06 | 80 | 1017.8 |
| 20260903140933 | 74 | 258 | 9.6 | 19.1 | 0.00 | 0.06 | 0.06 | 79 | 1017.8 |
| 20260903140644 | 73 | 242 | 8.7 | 21.7 | 0.00 | 0.06 | 0.06 | 81 | 1017.9 |
| 20260903135423 | 73 | 197 | 8.7 | 20.9 | 0.00 | 0.06 | 0.06 | 80 | 1017.7 |
| 20260903134919 | 73 | 234 | 10.4 | 18.2 | 0.00 | 0.06 | 0.06 | 81 | 1017.9 |
| 20260903134413 | 73 | 256 | 11.3 | 20.0 | 0.00 | 0.06 | 0.06 | 79 | 1017.9 |
| 20260903133907 | 73 | 243 | 10.4 | 20.0 | 0.00 | 0.06 | 0.06 | 77 | 1017.8 |
| 20260903133518 | 73 | 273 | 9.6 | 20.0 | 0.00 | 0.06 | 0.06 | 77 | 1017.7 |
| 20260903133422 | 73 | 272 | 9.6 | 20.0 | 0.00 | 0.06 | 0.06 | 79 | 1017.8 |
| 20260903132405 | 73 | 195 | 10.4 | 22.6 | 0.00 | 0.06 | 0.06 | 79 | 1017.7 |
| 20260903131909 | 72 | 252 | 12.2 | 25.2 | 0.00 | 0.06 | 0.06 | 78 | 1017.6 |
| 20260903131408 | 73 | 253 | 11.3 | 25.2 | 0.00 | 0.06 | 0.06 | 77 | 1017.5 |
| 20260903131358 | 73 | 270 | 10.4 | 17.4 | 0.00 | 0.06 | 0.06 | 77 | 1017.6 |
| 20260903130504 | 73 | 243 | 10.4 | 20.9 | 0.00 | 0.06 | 0.06 | 79 | 1017.6 |
| 20260903130425 | 74 | 233 | 11.3 | 20.9 | 0.00 | 0.06 | 0.06 | 79 | 1017.6 |
| 20260903125647 | 71 | 226 | 10.4 | 20.9 | 0.00 | 0.06 | 0.06 | 82 | 1017.6 |
| 20260903125510 | 73 | 249 | 10.4 | 20.9 | 0.00 | 0.06 | 0.06 | 80 | 1017.6 |
| 20260903125123 | 71 | 225 | 11.3 | 20.9 | 0.00 | 0.06 | 0.06 | 82 | 1017.6 |
| 20260903124935 | 71 | 210 | 9.6 | 20.9 | 0.00 | 0.06 | 0.06 | 82 | 1017.5 |
| 20260903123402 | 71 | 224 | 9.6 | 20.0 | 0.00 | 0.06 | 0.06 | 83 | 1017.6 |
| 20260903122908 | 71 | 219 | 9.6 | 20.0 | 0.00 | 0.06 | 0.06 | 83 | 1017.5 |
| 20260903122403 | 71 | 239 | 9.6 | 15.6 | 0.00 | 0.06 | 0.06 | 84 | 1017.5 |
| 20260903121926 | 71 | 221 | 9.6 | 21.7 | 0.00 | 0.06 | 0.06 | 84 | 1017.4 |
| 20260903121423 | 71 | 212 | 10.4 | 21.7 | 0.00 | 0.06 | 0.06 | 84 | 1017.4 |
| 20260903120921 | 72 | 256 | 11.3 | 21.7 | 0.01 | 0.06 | 0.06 | 85 | 1017.4 |
| 20260903115902 | 71 | 210 | 9.6 | 22.6 | 0.01 | 0.06 | 0.06 | 84 | 1017.4 |
| 20260903115409 | 72 | 237 | 7.8 | 16.5 | 0.01 | 0.06 | 0.06 | 84 | 1017.3 |
| 20260903115200 | 73 | 218 | 8.7 | 21.7 | 0.01 | 0.06 | 0.06 | 85 | 1017.3 |
| 20260903114935 | 72 | 227 | 8.7 | 16.5 | 0.01 | 0.06 | 0.06 | 85 | 1017.3 |
| 20260903113902 | 72 | 256 | 9.6 | 21.7 | 0.01 | 0.06 | 0.06 | 85 | 1017.2 |
| 20260903113505 | 72 | 234 | 9.6 | 21.7 | 0.01 | 0.06 | 0.06 | 87 | 1017.3 |
| 20260903113003 | 71 | 249 | 9.6 | 20.9 | 0.01 | 0.06 | 0.06 | 89 | 1017.3 |
| 20260903111902 | 70 | 243 | 8.7 | 20.9 | 0.01 | 0.06 | 0.06 | 90 | 1017.4 |
| 20260903111400 | 70 | 137 | 7.8 | 14.8 | 0.01 | 0.06 | 0.05 | 88 | 1017.4 |
| 20260903110901 | 71 | 254 | 8.7 | 18.2 | 0.00 | 0.05 | 0.05 | 87 | 1017.4 |
| 20260903110411 | 71 | 223 | 9.6 | 18.2 | 0.00 | 0.05 | 0.05 | 86 | 1017.3 |
| 20260903105903 | 71 | 235 | 9.6 | 20.0 | 0.00 | 0.05 | 0.05 | 86 | 1017.4 |
| 20260903105357 | 71 | 236 | 11.3 | 23.5 | 0.00 | 0.05 | 0.05 | 86 | 1017.4 |
| 20260903105343 | 71 | 199 | 13.0 | 26.1 | 0.00 | 0.05 | 0.05 | 86 | 1017.4 |
| 20260903104356 | 71 | 273 | 11.3 | 26.1 | 0.00 | 0.05 | 0.05 | 86 | 1017.3 |
| 20260903103856 | 71 | 257 | 9.6 | 26.1 | 0.00 | 0.05 | 0.05 | 87 | 1017.1 |
| 20260903103357 | 71 | 243 | 10.4 | 26.1 | 0.00 | 0.05 | 0.05 | 87 | 1017.2 |
| 20260903102858 | 71 | 225 | 9.6 | 18.2 | 0.00 | 0.05 | 0.05 | 88 | 1017.1 |
| 20260903102400 | 71 | 250 | 9.6 | 17.4 | 0.00 | 0.05 | 0.05 | 89 | 1017.2 |
| 20260903102341 | 70 | 240 | 9.6 | 17.4 | 0.00 | 0.05 | 0.05 | 90 | 1017.3 |
| 20260903101358 | 69 | 227 | 8.7 | 16.5 | 0.00 | 0.05 | 0.05 | 92 | 1017.3 |
| 20260903100858 | 69 | 237 | 7.8 | 16.5 | 0.00 | 0.05 | 0.05 | 93 | 1017.1 |
| 20260903100358 | 69 | 218 | 7.0 | 14.8 | 0.00 | 0.05 | 0.05 | 94 | 1017.1 |
| 20260903095858 | 68 | 219 | 7.0 | 14.8 | 0.00 | 0.05 | 0.05 | 94 | 1017.1 |
| 20260903095838 | 68 | 222 | 7.8 | 18.2 | 0.00 | 0.05 | 0.05 | 95 | 1017.1 |
| 20260903094856 | 68 | 245 | 7.8 | 18.2 | 0.00 | 0.05 | 0.05 | 95 | 1017.2 |
| 20260903094839 | 68 | 247 | 7.0 | 14.8 | 0.00 | 0.05 | 0.05 | 96 | 1017.1 |
| 20260903094609 | 68 | 189 | 7.8 | 16.5 | 0.00 | 0.05 | 0.05 | 96 | 1017.1 |
| 20260903093357 | 68 | 229 | 6.1 | 13.0 | 0.00 | 0.05 | 0.05 | 96 | 1017.1 |
| 20260903093346 | 67 | 204 | 7.0 | 13.9 | 0.00 | 0.05 | 0.05 | 97 | 1017.0 |
| 20260903092843 | 67 | 204 | 7.0 | 15.6 | 0.00 | 0.05 | 0.05 | 97 | 1017.1 |
| 20260903092611 | 67 | 167 | 6.1 | 14.8 | 0.00 | 0.05 | 0.05 | 97 | 1017.1 |
| 20260903091354 | 67 | 242 | 7.0 | 15.6 | 0.00 | 0.05 | 0.05 | 97 | 1017.1 |
| 20260903090857 | 67 | 210 | 6.1 | 14.8 | 0.01 | 0.05 | 0.05 | 97 | 1016.9 |
| 20260903090847 | 67 | 185 | 7.0 | 14.8 | 0.01 | 0.05 | 0.05 | 97 | 1016.9 |
| 20260903085851 | 67 | 171 | 7.0 | 13.9 | 0.01 | 0.05 | 0.05 | 98 | 1016.8 |
| 20260903085840 | 67 | 222 | 6.1 | 13.0 | 0.01 | 0.05 | 0.05 | 98 | 1016.8 |
| 20260903084853 | 66 | 244 | 6.1 | 17.4 | 0.01 | 0.05 | 0.05 | 97 | 1016.8 |
| 20260903084838 | 66 | 211 | 6.1 | 17.4 | 0.01 | 0.05 | 0.05 | 97 | 1016.6 |
| 20260903083852 | 66 | 247 | 5.2 | 13.9 | 0.01 | 0.05 | 0.05 | 97 | 1016.6 |
| 20260903083353 | 66 | 225 | 6.1 | 13.0 | 0.02 | 0.05 | 0.05 | 98 | 1016.5 |
| 20260903082855 | 66 | 237 | 6.1 | 13.9 | 0.02 | 0.05 | 0.05 | 97 | 1016.5 |
| 20260903082354 | 65 | 233 | 6.1 | 13.9 | 0.02 | 0.05 | 0.05 | 97 | 1016.5 |
| 20260903081851 | 65 | 179 | 5.2 | 13.9 | 0.02 | 0.05 | 0.05 | 97 | 1016.5 |
| 20260903081352 | 65 | 218 | 5.2 | 13.9 | 0.02 | 0.05 | 0.05 | 97 | 1016.6 |
| 20260903080847 | 65 | 225 | 6.1 | 13.9 | 0.02 | 0.04 | 0.04 | 97 | 1016.6 |
| 20260903080348 | 65 | 177 | 7.0 | 13.9 | 0.02 | 0.04 | 0.04 | 97 | 1016.6 |
| 20260903075851 | 65 | 197 | 6.1 | 13.0 | 0.02 | 0.04 | 0.04 | 97 | 1016.7 |
| 20260903075347 | 65 | 232 | 6.1 | 12.2 | 0.02 | 0.04 | 0.04 | 97 | 1016.6 |
| 20260903074846 | 65 | 177 | 6.1 | 14.8 | 0.02 | 0.04 | 0.04 | 97 | 1016.4 |
| 20260903074341 | 65 | 212 | 6.1 | 14.8 | 0.02 | 0.04 | 0.04 | 96 | 1016.5 |
| 20260903073842 | 65 | 187 | 6.1 | 14.8 | 0.02 | 0.04 | 0.04 | 96 | 1016.5 |
| 20260903073344 | 65 | 239 | 7.0 | 14.8 | 0.02 | 0.03 | 0.03 | 96 | 1016.5 |
| 20260903072841 | 65 | 194 | 7.0 | 13.9 | 0.02 | 0.03 | 0.03 | 96 | 1016.7 |
| 20260903072342 | 65 | 229 | 7.0 | 13.9 | 0.02 | 0.03 | 0.03 | 96 | 1016.6 |
| 20260903071844 | 65 | 279 | 7.0 | 14.8 | 0.02 | 0.03 | 0.03 | 96 | 1016.5 |
| 20260903071341 | 65 | 214 | 7.8 | 15.6 | 0.02 | 0.03 | 0.03 | 96 | 1016.5 |
| 20260903070838 | 65 | 240 | 7.0 | 15.6 | 0.01 | 0.02 | 0.02 | 96 | 1016.7 |
| 20260903070336 | 65 | 193 | 6.1 | 14.8 | 0.02 | 0.02 | 0.02 | 96 | 1016.7 |
| 20260903065838 | 65 | 220 | 6.1 | 13.0 | 0.02 | 0.02 | 0.02 | 95 | 1016.7 |
| 20260903065337 | 65 | 158 | 6.1 | 13.9 | 0.02 | 0.02 | 0.02 | 95 | 1016.7 |
| 20260903064838 | 65 | 244 | 6.1 | 13.9 | 0.02 | 0.02 | 0.02 | 95 | 1016.6 |
| 20260903064338 | 65 | 225 | 6.1 | 13.0 | 0.02 | 0.02 | 0.02 | 95 | 1016.6 |
| 20260903063835 | 65 | 231 | 6.1 | 12.2 | 0.02 | 0.02 | 0.02 | 94 | 1016.7 |
| 20260903063337 | 65 | 197 | 6.1 | 13.9 | 0.02 | 0.02 | 0.02 | 94 | 1016.7 |
| 20260903062835 | 65 | 223 | 6.1 | 13.9 | 0.02 | 0.02 | 0.02 | 94 | 1016.6 |
| 20260903062823 | 65 | 222 | 5.2 | 11.3 | 0.02 | 0.02 | 0.02 | 93 | 1016.5 |
| 20260903061833 | 65 | 179 | 5.2 | 13.0 | 0.02 | 0.02 | 0.02 | 93 | 1016.5 |
| 20260903061334 | 65 | 171 | 5.2 | 13.0 | 0.02 | 0.02 | 0.02 | 92 | 1016.6 |
| 20260903060836 | 66 | 165 | 5.2 | 11.3 | 0.02 | 0.02 | 0.02 | 92 | 1016.5 |
| 20260903060332 | 66 | 246 | 5.2 | 12.2 | 0.01 | 0.01 | 0.01 | 91 | 1016.4 |
| 20260903055835 | 66 | 239 | 6.1 | 12.2 | 0.01 | 0.01 | 0.01 | 90 | 1016.4 |
| 20260903055331 | 66 | 212 | 6.1 | 13.9 | 0.01 | 0.01 | 0.01 | 90 | 1016.4 |
| 20260903054833 | 67 | 181 | 6.1 | 15.6 | 0.01 | 0.01 | 0.00 | 89 | 1016.4 |
| 20260903054331 | 66 | 208 | 7.0 | 15.6 | 0.00 | 0.00 | 0.00 | 89 | 1016.4 |
| 20260903053831 | 66 | 183 | 7.0 | 13.0 | 0.00 | 0.00 | 0.00 | 88 | 1016.4 |
| 20260903053333 | 67 | 206 | 7.0 | 13.9 | 0.00 | 0.00 | 0.00 | 88 | 1016.3 |
| 20260903052833 | 67 | 179 | 7.8 | 13.9 | 0.00 | 0.00 | 0.00 | 88 | 1016.3 |
| 20260903052333 | 67 | 228 | 7.8 | 16.5 | 0.00 | 0.00 | 0.00 | 88 | 1016.3 |
| 20260903051833 | 67 | 205 | 7.0 | 16.5 | 0.00 | 0.00 | 0.00 | 87 | 1016.4 |
| 20260903051332 | 67 | 214 | 7.0 | 15.6 | 0.00 | 0.00 | 0.00 | 87 | 1016.4 |
| 20260903050833 | 67 | 171 | 7.0 | 16.5 | 0.00 | 0.00 | 0.00 | 87 | 1016.3 |
| 20260903050333 | 67 | 218 | 7.0 | 16.5 | 0.00 | 0.00 | 0.00 | 87 | 1016.2 |
| 20260903045833 | 67 | 197 | 6.1 | 13.0 | 0.00 | 0.00 | 0.00 | 87 | 1016.2 |
| 20260903045330 | 67 | 197 | 6.1 | 15.6 | 0.00 | 0.00 | 0.00 | 86 | 1016.4 |
| 20260903044833 | 67 | 210 | 6.1 | 15.6 | 0.00 | 0.00 | 0.00 | 86 | 1016.3 |
| 20260903044332 | 67 | 157 | 7.8 | 17.4 | 0.00 | 0.00 | 0.00 | 86 | 1016.4 |
| 20260903043831 | 67 | 231 | 8.7 | 18.2 | 0.00 | 0.00 | 0.00 | 86 | 1016.3 |
| 20260903043820 | 66 | 222 | 6.1 | 15.6 | 0.00 | 0.00 | 0.00 | 86 | 1016.1 |
| 20260903043810 | 66 | 200 | 7.8 | 17.4 | 0.00 | 0.00 | 0.00 | 86 | 1016.1 |
| 20260903043537 | 66 | 202 | 7.8 | 18.2 | 0.00 | 0.00 | 0.00 | 86 | 1016.2 |
| 20260903041830 | 66 | 219 | 6.1 | 14.8 | 0.00 | 0.00 | 0.00 | 86 | 1016.1 |
| 20260903041329 | 66 | 229 | 7.0 | 16.5 | 0.00 | 0.00 | 0.00 | 86 | 1016.1 |
| 20260903040831 | 66 | 247 | 7.0 | 17.4 | 0.00 | 0.00 | 0.00 | 86 | 1016.2 |
| 20260903040333 | 66 | 174 | 7.0 | 17.4 | 0.00 | 0.00 | 0.00 | 86 | 1016.2 |
| 20260903040326 | 66 | 200 | 7.0 | 16.5 | 0.00 | 0.00 | 0.00 | 86 | 1016.3 |
| 20260903035331 | 66 | 231 | 7.0 | 14.8 | 0.00 | 0.00 | 0.00 | 86 | 1016.4 |
| 20260903034829 | 66 | 183 | 6.1 | 14.8 | 0.00 | 0.00 | 0.00 | 86 | 1016.5 |
| 20260903034330 | 66 | 179 | 5.2 | 11.3 | 0.00 | 0.00 | 0.00 | 86 | 1016.6 |
| 20260903033829 | 66 | 227 | 6.1 | 13.0 | 0.00 | 0.00 | 0.00 | 86 | 1016.7 |
| 20260903033818 | 66 | 200 | 7.0 | 13.0 | 0.00 | 0.00 | 0.00 | 86 | 1016.8 |
| 20260903032829 | 66 | 232 | 6.1 | 13.0 | 0.00 | 0.00 | 0.00 | 86 | 1016.9 |
| 20260903032331 | 66 | 243 | 6.1 | 13.0 | 0.00 | 0.00 | 0.00 | 86 | 1016.8 |
| 20260903031832 | 66 | 222 | 6.1 | 17.4 | 0.00 | 0.00 | 0.00 | 86 | 1016.7 |
| 20260903031330 | 66 | 207 | 6.1 | 17.4 | 0.00 | 0.00 | 0.00 | 86 | 1016.7 |
| 20260903030830 | 66 | 195 | 6.1 | 13.9 | 0.00 | 0.00 | 0.00 | 86 | 1016.6 |
| 20260903030330 | 66 | 189 | 7.0 | 13.9 | 0.00 | 0.00 | 0.00 | 86 | 1016.6 |
| 20260903025827 | 65 | 212 | 6.1 | 13.9 | 0.00 | 0.00 | 0.00 | 86 | 1016.6 |
| 20260903025323 | 65 | 216 | 5.2 | 13.9 | 0.00 | 0.00 | 0.00 | 86 | 1016.6 |
| 20260903024825 | 65 | 148 | 7.0 | 15.6 | 0.00 | 0.00 | 0.00 | 86 | 1016.7 |
| 20260903024323 | 66 | 203 | 7.0 | 15.6 | 0.00 | 0.00 | 0.00 | 86 | 1016.7 |
| 20260903023823 | 66 | 163 | 7.0 | 13.9 | 0.00 | 0.00 | 0.00 | 86 | 1016.8 |
| 20260903023325 | 66 | 199 | 7.8 | 21.7 | 0.00 | 0.00 | 0.00 | 85 | 1017.0 |
| 20260903022826 | 67 | 251 | 8.7 | 21.7 | 0.00 | 0.00 | 0.00 | 84 | 1016.9 |
| 20260903022325 | 66 | 177 | 7.8 | 16.5 | 0.00 | 0.00 | 0.00 | 83 | 1016.9 |
| 20260903021824 | 66 | 227 | 7.0 | 16.5 | 0.00 | 0.00 | 0.00 | 84 | 1016.9 |
| 20260903021325 | 66 | 187 | 7.0 | 14.8 | 0.00 | 0.00 | 0.00 | 84 | 1017.1 |
| 20260903020821 | 66 | 220 | 7.0 | 14.8 | 0.00 | 0.00 | 0.00 | 84 | 1017.0 |
| 20260903020323 | 66 | 196 | 5.2 | 14.8 | 0.00 | 0.00 | 0.00 | 84 | 1017.0 |
| 20260903015821 | 66 | 158 | 6.1 | 13.9 | 0.00 | 0.00 | 0.00 | 84 | 1017.0 |
| 20260903015322 | 66 | 220 | 6.1 | 13.9 | 0.00 | 0.00 | 0.00 | 83 | 1017.0 |
| 20260903014824 | 66 | 172 | 6.1 | 13.0 | 0.00 | 0.00 | 0.00 | 83 | 1017.0 |
| 20260903014321 | 66 | 190 | 5.2 | 12.2 | 0.00 | 0.00 | 0.00 | 82 | 1017.2 |
| 20260903014308 | 66 | 177 | 5.2 | 11.3 | 0.00 | 0.00 | 0.00 | 82 | 1017.3 |
| 20260903014030 | 66 | 228 | 5.2 | 10.4 | 0.00 | 0.00 | 0.00 | 82 | 1017.2 |
| 20260903013313 | 66 | 209 | 5.2 | 11.3 | 0.00 | 0.00 | 0.00 | 82 | 1017.3 |
| 20260903012323 | 66 | 220 | 5.2 | 13.0 | 0.00 | 0.00 | 0.00 | 81 | 1017.3 |
| 20260903011823 | 66 | 231 | 6.1 | 13.0 | 0.00 | 0.00 | 0.00 | 81 | 1017.3 |
| 20260903011321 | 66 | 207 | 5.2 | 12.2 | 0.00 | 0.00 | 0.00 | 81 | 1017.4 |
| 20260903010818 | 66 | 180 | 4.3 | 11.3 | 0.00 | 0.00 | 0.00 | 81 | 1017.5 |
| 20260903010317 | 66 | 215 | 5.2 | 12.2 | 0.00 | 0.00 | 0.00 | 80 | 1017.7 |
| 20260903005817 | 66 | 183 | 5.2 | 13.0 | 0.00 | 0.00 | 0.00 | 80 | 1017.6 |
| 20260903005317 | 66 | 232 | 5.2 | 13.0 | 0.00 | 0.00 | 0.00 | 80 | 1017.6 |
| 20260903004817 | 66 | 183 | 6.1 | 13.9 | 0.00 | 0.00 | 0.00 | 80 | 1017.6 |
| 20260903004319 | 66 | 187 | 5.2 | 13.9 | 0.00 | 0.00 | 0.00 | 79 | 1017.6 |
| 20260903003819 | 66 | 229 | 6.1 | 13.9 | 0.00 | 0.00 | 0.00 | 79 | 1017.8 |
| 20260903003315 | 66 | 199 | 6.1 | 13.9 | 0.00 | 0.00 | 0.00 | 79 | 1017.8 |
| 20260903003258 | 67 | 203 | 6.1 | 14.8 | 0.00 | 0.00 | 0.00 | 78 | 1018.0 |
| 20260903002319 | 67 | 224 | 7.0 | 14.8 | 0.00 | 0.00 | 0.00 | 77 | 1018.1 |
| 20260903001816 | 67 | 247 | 6.1 | 13.0 | 0.00 | 0.00 | 0.00 | 77 | 1018.0 |
| 20260903001317 | 66 | 228 | 5.2 | 13.0 | 0.00 | 0.00 | 0.00 | 77 | 1018.0 |
| 20260903000817 | 66 | 176 | 4.3 | 10.4 | 0.00 | 0.00 | 0.00 | 77 | 1018.0 |
| 20260903000317 | 66 | 210 | 5.2 | 13.0 | 0.00 | 0.00 | 0.00 | 77 | 1018.0 |
| 20260902235814 | 67 | 210 | 6.1 | 13.0 | 0.00 | 0.00 | 0.00 | 77 | 1018.0 |
| 20260902235315 | 66 | 208 | 6.1 | 12.2 | 0.00 | 0.00 | 0.00 | 77 | 1018.0 |
| 20260902234814 | 66 | 210 | 6.1 | 13.9 | 0.00 | 0.00 | 0.00 | 77 | 1018.3 |
| 20260902234314 | 66 | 216 | 7.0 | 14.8 | 0.00 | 0.00 | 0.00 | 77 | 1018.4 |
| 20260902233816 | 67 | 200 | 7.0 | 14.8 | 0.00 | 0.00 | 0.00 | 77 | 1018.3 |
| 20260902233316 | 67 | 219 | 6.1 | 14.8 | 0.00 | 0.00 | 0.00 | 76 | 1018.2 |
| 20260902232817 | 67 | 217 | 7.0 | 17.4 | 0.00 | 0.00 | 0.00 | 76 | 1018.4 |
| 20260902232309 | 67 | 187 | 7.0 | 17.4 | 0.00 | 0.00 | 0.00 | 76 | 1018.4 |
| 20260902231809 | 67 | 216 | 6.1 | 14.8 | 0.00 | 0.00 | 0.00 | 76 | 1018.5 |
| 20260902231313 | 67 | 216 | 7.0 | 19.1 | 0.00 | 0.00 | 0.00 | 76 | 1018.5 |
| 20260902230810 | 66 | 215 | 7.0 | 19.1 | 0.00 | 0.00 | 0.00 | 76 | 1018.6 |
| 20260902230310 | 66 | 223 | 6.1 | 13.9 | 0.00 | 0.00 | 0.00 | 77 | 1018.7 |
| 20260902225812 | 66 | 209 | 5.2 | 13.9 | 0.00 | 0.00 | 0.00 | 78 | 1018.7 |
| 20260902225308 | 65 | 204 | 5.2 | 13.9 | 0.00 | 0.00 | 0.00 | 78 | 1018.7 |
| 20260902224809 | 65 | 211 | 5.2 | 9.6 | 0.00 | 0.00 | 0.00 | 80 | 1018.7 |
| 20260902224311 | 65 | 214 | 4.3 | 9.6 | 0.00 | 0.00 | 0.00 | 80 | 1018.8 |
| 20260902223808 | 65 | 219 | 4.3 | 10.4 | 0.00 | 0.00 | 0.00 | 81 | 1018.8 |
| 20260902223308 | 65 | 188 | 4.3 | 10.4 | 0.00 | 0.00 | 0.00 | 81 | 1018.9 |
| 20260902222806 | 65 | 182 | 3.5 | 8.7 | 0.00 | 0.00 | 0.00 | 81 | 1019.0 |
| 20260902222745 | 65 | 203 | 2.6 | 7.0 | 0.00 | 0.00 | 0.00 | 81 | 1018.9 |
| 20260902222238 | 65 | 218 | 4.3 | 13.0 | 0.00 | 0.00 | 0.00 | 81 | 1019.1 |
| 20260902221307 | 65 | 179 | 5.2 | 13.0 | 0.00 | 0.00 | 0.00 | 80 | 1019.1 |
| 20260902220807 | 65 | 222 | 5.2 | 13.0 | 0.00 | 0.00 | 0.00 | 80 | 1019.2 |
| 20260902220309 | 66 | 234 | 6.1 | 16.5 | 0.00 | 0.00 | 0.00 | 79 | 1019.2 |
| 20260902215806 | 66 | 229 | 7.8 | 17.4 | 0.00 | 0.00 | 0.00 | 78 | 1019.4 |
| 20260902215742 | 67 | 299 | 8.7 | 17.4 | 0.00 | 0.00 | 0.00 | 77 | 1019.4 |
| 20260902214803 | 67 | 235 | 7.0 | 14.8 | 0.00 | 0.00 | 0.00 | 76 | 1019.2 |
| 20260902214304 | 67 | 208 | 7.8 | 15.6 | 0.00 | 0.00 | 0.00 | 77 | 1019.2 |
| 20260902213806 | 66 | 231 | 7.0 | 15.6 | 0.00 | 0.00 | 0.00 | 77 | 1019.1 |
| 20260902213307 | 66 | 204 | 5.2 | 13.9 | 0.00 | 0.00 | 0.00 | 79 | 1019.0 |
| 20260902213255 | 66 | 208 | 5.2 | 13.9 | 0.00 | 0.00 | 0.00 | 81 | 1019.1 |
| 20260902212740 | 66 | 157 | 5.2 | 13.9 | 0.00 | 0.00 | 0.00 | 82 | 1019.1 |
| 20260902212003 | 65 | 147 | 4.3 | 13.9 | 0.00 | 0.00 | 0.00 | 83 | 1019.1 |
| 20260902211503 | 65 | 186 | 2.6 | 6.1 | 0.00 | 0.00 | 0.00 | 85 | 1019.1 |
| 20260902210306 | 65 | 199 | 3.5 | 6.1 | 0.00 | 0.00 | 0.00 | 85 | 1019.2 |
| 20260902205805 | 65 | 160 | 3.5 | 7.0 | 0.00 | 0.00 | 0.00 | 85 | 1019.2 |
| 20260902205306 | 65 | 165 | 3.5 | 7.0 | 0.00 | 0.00 | 0.00 | 85 | 1019.2 |
| 20260902204806 | 65 | 153 | 2.6 | 6.1 | 0.00 | 0.00 | 0.00 | 85 | 1019.3 |
| 20260902204306 | 65 | 177 | 3.5 | 6.1 | 0.00 | 0.00 | 0.00 | 85 | 1019.3 |
| 20260902204248 | 65 | 181 | 4.3 | 7.0 | 0.00 | 0.00 | 0.00 | 85 | 1019.3 |
| 20260902203305 | 65 | 165 | 4.3 | 7.0 | 0.00 | 0.00 | 0.00 | 85 | 1019.3 |
| 20260902202802 | 65 | 200 | 3.5 | 7.0 | 0.00 | 0.00 | 0.00 | 85 | 1019.3 |
| 20260902202306 | 65 | 163 | 1.7 | 6.1 | 0.00 | 0.00 | 0.00 | 85 | 1019.4 |
| 20260902201804 | 65 | 166 | 1.7 | 5.2 | 0.00 | 0.00 | 0.00 | 85 | 1019.5 |
| 20260902201302 | 65 | 195 | 1.7 | 5.2 | 0.00 | 0.00 | 0.00 | 85 | 1019.4 |
| 20260902200805 | 65 | 160 | 2.6 | 4.3 | 0.00 | 0.00 | 0.00 | 85 | 1019.5 |
| 20260902200303 | 65 | 162 | 2.6 | 4.3 | 0.00 | 0.00 | 0.00 | 85 | 1019.6 |
| 20260902200243 | 65 | 187 | 1.7 | 4.3 | 0.00 | 0.00 | 0.00 | 85 | 1019.6 |
| 20260902195306 | 65 | 189 | 1.7 | 4.3 | 0.00 | 0.00 | 0.00 | 85 | 1019.6 |
| 20260902194801 | 65 | 158 | 1.7 | 4.3 | 0.00 | 0.00 | 0.00 | 85 | 1019.5 |
| 20260902194303 | 66 | 177 | 1.7 | 4.3 | 0.00 | 0.00 | 0.00 | 84 | 1019.6 |
| 20260902193803 | 66 | 175 | 1.7 | 3.5 | 0.00 | 0.00 | 0.00 | 84 | 1019.5 |
| 20260902193303 | 66 | 185 | 1.7 | 4.3 | 0.00 | 0.00 | 0.00 | 84 | 1019.7 |
| 20260902192800 | 66 | 183 | 2.6 | 5.2 | 0.00 | 0.00 | 0.00 | 84 | 1019.8 |
| 20260902192741 | 66 | 174 | 2.6 | 6.1 | 0.00 | 0.00 | 0.00 | 83 | 1019.7 |
| 20260902191759 | 66 | 168 | 2.6 | 6.1 | 0.00 | 0.00 | 0.00 | 83 | 1019.8 |
| 20260902191257 | 66 | 200 | 2.6 | 4.3 | 0.00 | 0.00 | 0.00 | 82 | 1019.9 |
| 20260902190756 | 66 | 172 | 2.6 | 4.3 | 0.00 | 0.00 | 0.00 | 82 | 1020.0 |
| 20260902190254 | 66 | 227 | 1.7 | 5.2 | 0.00 | 0.00 | 0.00 | 82 | 1019.9 |
| 20260902185755 | 66 | 171 | 2.6 | 5.2 | 0.00 | 0.00 | 0.00 | 82 | 1019.8 |
| 20260902185248 | 66 | 176 | 2.6 | 5.2 | 0.00 | 0.00 | 0.00 | 82 | 1019.8 |
| 20260902184746 | 67 | 189 | 2.6 | 4.3 | 0.00 | 0.00 | 0.00 | 81 | 1019.7 |
| 20260902184245 | 67 | 177 | 2.6 | 4.3 | 0.00 | 0.00 | 0.00 | 81 | 1019.7 |
| 20260902184234 | 67 | 169 | 1.7 | 4.3 | 0.00 | 0.00 | 0.00 | 81 | 1019.7 |
| 20260902183246 | 67 | 183 | 1.7 | 5.2 | 0.00 | 0.00 | 0.00 | 80 | 1019.8 |
| 20260902183218 | 67 | 330 | 2.6 | 6.1 | 0.00 | 0.00 | 0.00 | 80 | 1019.7 |
| 20260902182245 | 67 | 179 | 2.6 | 6.1 | 0.00 | 0.00 | 0.00 | 80 | 1019.7 |
| 20260902181745 | 67 | 217 | 2.6 | 4.3 | 0.00 | 0.00 | 0.00 | 80 | 1019.7 |
| 20260902181245 | 67 | 193 | 2.6 | 7.0 | 0.00 | 0.00 | 0.00 | 80 | 1019.8 |
| 20260902180746 | 67 | 186 | 2.6 | 7.0 | 0.00 | 0.00 | 0.00 | 79 | 1019.8 |
| 20260902180245 | 67 | 199 | 2.6 | 7.0 | 0.00 | 0.00 | 0.00 | 79 | 1020.0 |
| 20260902180225 | 67 | 209 | 2.6 | 8.7 | 0.00 | 0.00 | 0.00 | 79 | 1020.0 |
| 20260902175246 | 68 | 251 | 2.6 | 8.7 | 0.00 | 0.00 | 0.00 | 79 | 1020.0 |
| 20260902174745 | 68 | 220 | 4.3 | 9.6 | 0.00 | 0.00 | 0.00 | 79 | 1019.9 |
| 20260902174246 | 68 | 184 | 4.3 | 9.6 | 0.00 | 0.00 | 0.00 | 78 | 1019.9 |
| 20260902173746 | 68 | 170 | 2.6 | 7.8 | 0.00 | 0.00 | 0.00 | 78 | 1019.9 |
| 20260902173245 | 68 | 210 | 3.5 | 7.8 | 0.00 | 0.00 | 0.00 | 78 | 1019.8 |
| 20260902173220 | 68 | 330 | 3.5 | 7.0 | 0.00 | 0.00 | 0.00 | 77 | 1020.0 |
| 20260902172242 | 68 | 181 | 3.5 | 8.7 | 0.00 | 0.00 | 0.00 | 77 | 1020.0 |
| 20260902171745 | 68 | 213 | 3.5 | 8.7 | 0.00 | 0.00 | 0.00 | 77 | 1019.9 |
| 20260902171243 | 68 | 228 | 4.3 | 8.7 | 0.00 | 0.00 | 0.00 | 77 | 1020.0 |
| 20260902170740 | 68 | 216 | 4.3 | 9.6 | 0.00 | 0.00 | 0.00 | 76 | 1019.9 |
| 20260902170239 | 68 | 224 | 4.3 | 9.6 | 0.00 | 0.00 | 0.00 | 76 | 1020.0 |
| 20260902165742 | 69 | 216 | 5.2 | 10.4 | 0.00 | 0.00 | 0.00 | 76 | 1020.0 |
| 20260902165242 | 69 | 251 | 4.3 | 10.4 | 0.00 | 0.00 | 0.00 | 76 | 1020.0 |
| 20260902164741 | 69 | 202 | 3.5 | 7.8 | 0.00 | 0.00 | 0.00 | 76 | 1020.0 |
| 20260902164241 | 69 | 199 | 3.5 | 7.8 | 0.00 | 0.00 | 0.00 | 76 | 1020.0 |
| 20260902163739 | 69 | 185 | 4.3 | 7.8 | 0.00 | 0.00 | 0.00 | 76 | 1020.0 |
| 20260902163241 | 69 | 218 | 4.3 | 9.6 | 0.00 | 0.00 | 0.00 | 76 | 1020.0 |
| 20260902162740 | 69 | 229 | 3.5 | 9.6 | 0.00 | 0.00 | 0.00 | 76 | 1020.1 |
| 20260902162240 | 69 | 222 | 3.5 | 7.8 | 0.00 | 0.00 | 0.00 | 76 | 1020.1 |
| 20260902161741 | 69 | 204 | 4.3 | 8.7 | 0.00 | 0.00 | 0.00 | 76 | 1020.2 |
| 20260902161240 | 69 | 216 | 5.2 | 12.2 | 0.00 | 0.00 | 0.00 | 75 | 1020.1 |
| 20260902161211 | 69 | 230 | 5.2 | 12.2 | 0.00 | 0.00 | 0.00 | 75 | 1020.1 |